CAPE
2212 1957 2155 2421 2850 2586 2344 2471 2075 2610 2274 2271 2174 2283 2285 1973 2025 2060 1907 2496 2618 1958 2158 1982 1646 1702 2375 2374 2452 2498 2168 2411 2512 2426 2092 2267 2348 3050 3152 2709 2590 2624 2652 2477 2200 2080 1929 1796 1774 1773 1965 2168 2228 1945 1937 1739 1582 1671 1760 1656 1628 1678 1641 1596 1592 1643 1591 1512 1511 1482 1441 1397 1466 1524 1548 1576 1580 1515 1504 1571 1432 1410 1448 1334 1316
2010 2123 1982 2426 2695 3276 2941 2270 2298 2453 2290 2234 2510 2247 2603 2102 2327 2607 1996 2404 2493 2344 1884 1853 1792 1305 1786 1558 1658 1805 1589 2052 2185 2318 2336 2494 2631 3458 3074 2743 2837 2625 2404 2224 2380 2158 2117 2011 1860 1844 2050 2137 2128 1907 1860 1990 1835 1625 1728 1724 1598 1600 1644 1682 1557 1523 1619 1504 1479 1484 1520 1520 1446 1486 1568 1614 1672 1676 1674 1725 1722 1611 1556 1490 1366
1924 2710 2600 2536 2881 2825 2491 2324 2300 2381 3135 2582 2396 2202 2145 2358 3162 3033 2621 2605 2342 2144 2302 2211 1772 1708 1956 2000 1831 1810 1509 1588 1845 1822 1776 2281 2410 3104 3060 2974 2775 2776 2561 2614 2341 2172 2174 2111 2068 1992 2038 1981 1955 1780 1900 2024 2072 2044 1890 1822 1770 1634 1611 1713 1652 1587 1550 1510 1522 1564 1565 1540 1556 1545 1577 1608 1662 1728 1817 1730 1714 1792 1782 1666 1562
3207 3534 2602 3104 2700 2439 2288 2340 2477 2379 2185 2214 2761 2777 2968 2626 2882 3292 3328 3109 2620 2353 2286 1552 736 341 503 942 1354 1639 1786 1588 1609 1612 1956 1894 1888 2367 3088 3130 3166 2810 2884 2611 2413 2420 2300 2284 2132 2142 2160 2136 2094 1770 1591 1911 2055 1798 1842 1955 1872 1702 1571 1666 1580 1529 1438 1461 1522 1552 1570 1635 1655 1648 1544 1609 1665 1800 1870 1848 1845 1728 1868 1900 1816
3934 3372 2928 2726 3120 2998 2836 2509 2631 2780 2324 2222 2834 2748 1964 2134 2322 2129 2022 1752 863 627 580 384 233 190 189 162 287 704 1868 1791 1888 1935 1782 2074 2294 1971 2138 2990 3096 2869 2828 2800 2742 2544 2584 2345 2338 2405 2136 2292 1992 1694 1735 1709 2022 1976 1839 1669 1566 1398 1388 955 969 899 1324 1359 1483 1372 1539 1728 1767 1770 1669 1660 1638 1692 1779 1862 1846 1881 1898 1906 1936
3972 4026 3174 2748 3102 2823 2970 2618 2148 2267 3124 2656 2078 2359 2742 2148 1450 1014 778 729 549 562 487 429 283 350 460 710 761 1270 1740 1569 1759 1814 2078 1721 1136 1165 476 530 1926 2980 3021 2848 2759 2790 2644 2725 2598 2497 2151 2398 2396 2078 1702 1780 1885 1903 1881 1714 1584 1246 1356 1380 1152 868 821 955 1445 1472 1462 1568 1658 1802 1845 1848 1752 1695 1694 1805 1903 1938 1886 1972 1965
4345 4198 3791 3034 2674 2384 2127 3114 2800 2252 3125 2846 2479 2188 2336 1404 873 1002 864 735 580 336 190 308 414 578 856 1134 1262 1608 1819 1813 1938 2131 1535 1710 1935 866 658 748 766 818 1943 2952 2994 2666 2896 2868 2860 2622 2496 2333 2449 2126 1925 1719 1830 1783 1661 1655 1586 1494 1268 1143 1247 1173 1028 1009 1178 1352 1632 1576 1644 1630 1759 1722 1894 1915 1899 1919 1919 1994 2011 2023 2108
4470 4378 3787 3006 2537 2354 2480 3028 2496 2618 2984 2290 2649 2026 1080 982 806 724 555 518 375 254 353 540 520 702 990 1116 1807 2022 2276 2269 2087 2282 1188 1344 912 1177 1332 1954 2089 1984 2097 1963 2743 2910 2630 2824 2766 2713 2597 2500 2406 2364 2049 1834 1878 1628 1454 1356 1319 1192 1122 1076 1020 1052 1131 1133 1324 1336 1647 1881 1840 1858 1873 1932 1886 1824 1886 2008 2104 2146 2170 2134 2116
4846 4579 4003 3358 2528 2512 2757 2070 2370 2745 2124 2076 1132 805 726 321 249 357 306 539 308 196 296 386 508 658 674 1148 1235 1674 1774 2100 1978 1206 1148 1122 1281 1307 1787 2310 2190 1180 1688 1877 2264 2548 2596 2615 2548 2544 2368 2454 2472 2396 2207 2218 1986 1735 1565 1338 1434 1254 1100 1141 1113 1032 1084 1140 1333 1690 1839 1872 1733 1681 1758 1772 1890 2073 1964 1926 2118 2232 2323 2289 2224
5124 4730 3986 3417 2962 2933 2626 2185 2344 2397 1353 961 612 454 512 426 307 248 167 193 139 120 126 54 110 400 544 513 706 895 956 985 984 898 902 924 1505 2091 2127 1674 1571 2238 1853 1988 2512 2332 2191 2138 2488 2510 2550 2524 2516 2356 2293 2105 2112 1955 1725 1539 1366 1223 1286 1297 1236 1159 1114 1122 1200 1552 1800 1882 1659 1418 1365 1459 1713 1834 2016 2034 2046 2125 2249 2339 2379
4934 4058 4370 3732 3302 3152 3078 2144 2061 1748 1175 803 515 371 484 443 192 210 355 444 532 340 437 468 456 530 596 617 749 1195 1406 936 858 761 820 902 652 1086 1736 1496 1843 1935 2212 2044 1774 2328 2276 2295 2360 2096 2186 2481 2264 2209 2122 1826 2004 1484 1565 1503 1428 1326 1310 1436 1336 1284 1478 1453 1343 1157 1524 1755 1701 1508 1394 1438 1532 1565 1694 1988 2161 2104 2286 2324 2366
4051 4524 4105 3800 3409 3122 3462 2712 1498 1174 1230 530 416 111 306 128 82 429 642 486 492 604 723 510 698 790 707 877 940 1212 1574 1337 901 766 881 964 1075 996 1107 1454 1638 1458 1487 1430 857 1276 1283 1749 1896 2109 2549 2258 2246 2333 2165 2037 1941 1591 1592 1540 1769 1602 1497 1478 1550 1631 1586 1614 1625 1587 1644 1695 1730 1661 1569 1508 1648 1741 1846 1916 1881 2050 2213 2350 2363
4708 4580 3794 3728 3713 3844 2340 1581 1205 1092 1140 902 565 473 376 222 348 553 736 888 772 719 838 827 972 892 1117 1101 784 920 752 908 799 500 404 416 567 953 734 603 530 763 894 842 964 884 629 642 732 968 2201 2682 2155 1564 1828 1860 1896 1804 1677 1438 1355 1575 1466 1490 1560 1614 1558 1528 1560 1563 1568 1582 1588 1568 1600 1607 1564 1516 1627 1634 1962 1674 1924 2084 2148
4498 4566 4162 4344 3442 2957 1867 1462 1179 1022 1207 968 734 456 466 230 593 944 878 918 834 578 639 819 810 702 557 376 458 656 700 542 529 423 366 419 394 494 498 398 456 419 463 456 602 518 441 391 862 806 935 974 1811 2300 2355 1732 1882 1634 1481 1249 1107 1001 1182 1586 1497 1367 1711 1923 1830 1667 1768 1719 1720 1497 1486 1551 1494 1484 1354 1417 1531 1707 1716 1768 2055
4578 4500 4847 4608 3614 2065 1664 1619 1281 1144 1354 1288 1029 457 336 89 393 959 772 696 738 693 731 410 505 369 309 428 276 183 1259 763 410 358 194 231 132 269 264 243 305 372 369 376 353 473 273 609 788 934 1028 886 904 1226 1160 1104 1293 1426 1244 1177 1068 1108 1340 1566 1537 1451 1627 1487 1592 1492 1818 1731 1598 1586 1601 1392 1434 1240 1234 1146 1326 1462 1541 1721 1960
4507 4132 4084 4276 2904 1973 1560 1460 1546 1369 1384 1254 1021 296 340 292 519 476 518 256 122 258 469 467 470 314 393 55 2 0 502 197 502 274 1 28 24 147 10 12 91 159 207 121 20 82 160 283 610 519 796 962 683 663 1028 814 1139 1058 884 721 630 896 1018 1097 1146 1425 1601 1400 1490 1465 1372 1610 1704 1568 1518 1401 1474 1439 1321 1168 1133 1114 1138 1650 1870
3246 3890 3466 2409 2014 2003 1686 1520 1454 1534 1326 1289 812 121 244 132 299 146 407 177 202 79 248 230 666 624 311 469 355 283 432 1 0 476 198 49 8 12 7 0 0 0 0 0 0 18 96 103 162 365 487 427 204 232 199 238 734 836 438 127 94 41 70 436 628 770 835 957 1082 1148 1168 1234 1349 1491 1630 1496 1311 1344 1301 1241 1243 1247 1239 1302 1632
2424 2344 2089 1847 1973 1969 1651 1464 1372 1485 1238 778 499 211 132 47 182 216 184 407 352 22 60 587 456 630 479 373 233 337 348 182 31 292 194 70 2 2 0 0 0 0 0 0 0 0 0 9 43 141 26 0 0 0 0 40 125 0 76 24 6 0 0 17 107 266 223 536 708 786 819 914 926 1056 1344 1466 1564 1250 1064 1185 1244 1261 1206 1160 1394
2042 2046 1845 1783 1884 1861 1747 1582 1353 1231 1101 836 543 102 76 116 206 189 222 522 104 202 6 142 506 530 422 329 208 428 202 420 454 2 378 166 109 7 7 1 0 0 0 0 0 0 0 0 0 0 0 0 0 0 0 16 0 0 1 2 0 0 0 0 8 17 4 16 43 112 169 220 420 611 780 1161 1295 1198 1016 990 1075 1183 1191 1227 1418
1881 2063 1986 1882 1881 1776 1759 1537 1182 686 642 576 174 62 153 264 186 490 455 177 168 134 80 70 102 436 153 168 291 363 398 333 396 442 22 7 468 22 20 0 0 1 0 0 0 0 0 0 0 0 0 0 0 0 0 0 12 0 0 0 0 0 0 0 0 0 0 0 0 10 4 52 76 141 228 443 808 1221 1230 1245 1398 1404 1362 1093 1140
2357 1987 2102 1965 1745 1690 1496 1166 773 608 412 135 83 276 333 368 334 411 295 286 154 354 99 155 85 57 118 350 105 231 216 141 224 390 50 140 23 34 18 8 8 15 0 0 0 0 0 0 0 0 0 0 0 0 0 0 0 0 0 2 0 0 0 0 0 0 0 0 0 0 0 0 0 40 40 82 135 256 554 902 1216 1262 1333 1369 1442
2360 2137 1868 1788 1683 1379 1006 716 540 228 224 225 418 320 401 435 374 449 291 225 300 219 148 168 88 142 88 197 207 141 145 193 190 109 24 24 32 0 1 3 35 65 9 10 0 0 0 0 0 0 0 0 0 0 0 0 0 0 0 0 0 0 0 0 0 0 0 0 0 0 0 0 0 0 0 0 11 56 136 210 314 604 906 1265 1456
1432 1402 1346 1307 1349 952 409 597 573 499 395 489 519 330 296 287 398 546 630 590 421 270 127 415 400 272 232 140 278 26 177 87 17 8 44 41 9 0 7 9 14 4 18 11 14 0 0 0 0 0 0 0 0 0 0 0 0 0 0 0 0 0 0 0 0 0 0 0 0 0 0 0 0 0 0 0 0 0 6 34 62 124 202 357 647
1571 1282 1078 1105 1130 932 472 524 599 515 503 441 468 207 117 424 418 572 608 534 600 507 428 466 376 300 216 149 166 23 164 30 24 112 66 87 114 86 34 34 10 20 6 103 1 4 3 0 0 0 0 0 0 0 0 0 0 0 135 22 0 4 0 0 0 0 0 0 0 0 0 0 0 0 0 0 0 0 0 0 0 13 38 96 174
1405 1418 1297 1202 959 1026 781 414 651 552 760 562 451 451 420 155 265 282 320 608 620 532 572 480 334 300 95 65 5 50 40 52 6 35 18 52 92 103 46 49 73 12 27 5 26 8 37 2 1 8 2 0 0 0 0 0 4 0 0 0 0 103 7 0 0 0 0 0 0 0 0 0 0 0 0 0 0 0 0 0 0 0 0 0 10
1512 1510 1304 997 1011 1030 936 499 781 703 744 766 381 436 552 372 244 235 343 556 470 526 486 300 298 363 74 71 87 17 31 13 30 44 31 24 30 44 34 40 27 36 18 29 24 50 50 15 2 6 0 0 0 0 0 0 0 689 49 0 0 0 8 2 11 0 0 0 0 0 0 0 0 0 0 0 0 0 0 0 0 0 0 0 0
1648 1756 1318 1019 926 1151 864 632 736 918 846 652 465 285 331 276 356 413 494 530 606 449 290 255 261 254 190 244 265 14 28 24 1 6 30 13 8 51 96 125 68 10 14 31 36 18 14 15 10 19 217 77 0 2 2 0 0 445 8 0 0 0 30 1 1 0 0 0 0 0 0 0 0 0 0 0 0 0 0 0 0 0 0 0 0
1806 1525 1359 1034 980 1046 858 616 871 852 848 780 578 337 389 428 506 340 543 332 394 486 518 314 305 231 234 323 370 160 107 64 68 50 70 114 74 112 128 92 100 16 24 22 23 31 33 43 57 87 33 8 0 1 1 0 0 0 39 0 0 2 252 23 2 0 0 0 0 0 0 0 0 0 0 0 0 0 0 0 0 0 0 0 0
1763 1446 1532 1195 964 927 852 686 847 844 898 931 694 540 429 446 444 270 255 213 436 430 341 350 469 154 214 323 330 376 294 221 214 171 229 322 248 206 187 120 93 82 74 28 34 10 25 7 20 307 84 36 56 0 0 1 2 2 0 0 1 4 0 3 7 0 0 0 0 0 0 0 0 0 0 0 0 0 0 0 0 0 0 0 0
1646 1356 1366 1252 1084 948 914 864 934 841 739 629 794 741 559 408 361 299 347 394 477 510 501 472 358 270 126 84 98 176 215 234 217 169 238 358 358 426 410 343 362 317 220 162 166 96 51 30 14 72 226 40 23 20 4 2 3 22 5 6 4 35 12 2 16 18 0 0 0 0 0 0 0 0 0 0 0 0 0 0 0 0 0 0 0
1765 1586 1413 1434 1165 962 941 1083 862 917 790 656 692 693 586 555 422 416 428 536 592 572 672 478 290 208 265 214 250 199 229 226 250 154 197 243 360 514 572 598 503 450 441 232 231 323 73 80 42 21 44 69 12 17 22 29 24 7 12 28 68 90 111 449 52 8 0 0 0 0 0 0 0 0 0 0 0 0 0 0 0 0 0 0 0
1820 1672 1513 1376 1156 908 717 859 717 782 771 727 737 897 810 842 578 345 365 524 525 508 457 238 239 248 252 238 196 258 266 368 510 411 484 408 482 554 626 777 886 1045 1410 1023 588 578 504 104 70 55 70 124 74 56 118 148 54 256 104 231 357 434 352 427 427 168 46 4 0 0 0 0 0 0 0 0 0 0 0 0 0 0 0 0 0
2058 1833 1517 1022 924 916 792 811 772 668 1008 1051 928 1037 1059 937 997 883 588 496 511 540 476 327 254 262 348 304 322 340 338 386 522 340 250 389 486 942 1276 1322 1248 780 709 656 717 763 686 552 345 148 122 156 126 130 138 131 172 100 137 239 284 360 429 437 428 242 152 56 8 0 0 0 0 0 0 0 0 0 0 0 0 0 0 0 0
2325 1995 1552 815 866 883 887 816 700 534 1163 1160 745 785 814 764 1010 697 488 562 648 710 497 359 296 377 340 342 510 573 548 528 491 454 435 234 220 323 684 1114 1205 1178 1310 1237 1165 1004 736 790 604 442 305 132 166 225 152 130 102 92 138 192 224 588 464 416 327 327 178 114 18 0 0 0 0 0 0 0 0 0 0 0 0 0 0 0 0
2520 2143 1430 801 954 948 969 1075 673 909 900 930 817 822 861 864 919 602 330 434 626 517 428 480 420 389 439 474 485 431 409 388 472 459 360 457 407 338 263 269 347 408 402 534 990 868 648 586 478 366 422 314 165 195 225 265 348 326 301 333 339 358 481 356 270 250 159 80 54 0 0 0 0 0 0 0 0 0 0 0 0 0 0 0 0
2443 1922 1369 846 842 1220 966 1179 734 349 718 913 845 851 774 688 804 660 450 517 493 406 374 386 372 450 514 498 497 436 348 380 381 430 437 533 593 430 299 396 506 647 1079 1354 1132 910 355 580 685 558 632 654 616 493 395 245 178 277 266 256 344 429 452 430 355 254 180 86 30 6 0 0 0 0 0 0 0 0 0 0 0 0 0 0 0
2404 1718 1332 488 949 1327 1074 759 847 848 904 703 772 506 556 619 712 613 553 574 496 483 492 526 542 652 606 528 508 484 439 378 402 366 436 613 436 311 280 374 548 641 1083 1118 1034 1078 1150 1197 1014 948 744 738 749 575 465 410 379 372 325 284 214 258 236 128 164 88 17 0 0 2 2 0 0 0 0 0 0 0 0 0 0 0 0 0 0
2288 1640 1062 451 1243 1449 988 1010 934 749 610 706 825 686 469 717 907 672 565 438 370 481 496 508 523 549 763 786 690 564 492 449 464 424 480 430 443 445 469 649 848 1008 1230 1401 1401 1310 1140 1000 905 770 802 626 589 652 856 871 512 269 336 494 328 243 334 226 89 74 115 82 62 241 324 162 41 0 0 0 0 0 0 0 0 0 0 0 0
2328 1590 1034 1069 1613 1502 989 692 462 489 371 700 890 914 731 739 864 709 458 472 540 556 586 565 476 366 430 613 718 686 654 612 658 674 474 479 603 748 652 529 519 906 1162 1192 1220 1202 1242 1287 1054 636 521 788 857 754 783 1003 570 427 272 407 570 613 556 233 272 288 392 380 186 59 100 88 90 147 15 0 0 0 0 0 0 0 0 0 0
2117 1473 1150 1203 1590 1318 374 441 376 322 615 934 1064 978 856 847 736 469 692 796 691 695 649 561 542 220 206 374 250 278 464 586 628 660 699 861 1166 1484 1480 1255 668 557 664 795 965 1062 1137 1185 552 617 958 1050 551 544 774 668 697 656 784 637 477 364 474 698 664 687 467 519 508 330 215 274 256 213 24 4 0 0 0 0 0 0 0 0 0
2092 1628 1319 1360 1114 471 366 326 408 548 702 720 638 830 740 748 476 773 954 870 760 604 642 621 552 380 589 526 324 191 258 514 719 608 576 898 1092 714 590 527 556 576 604 532 497 486 548 872 968 799 635 620 665 663 298 580 320 339 466 424 434 572 688 542 720 677 616 547 468 374 427 431 378 362 376 530 819 472 115 0 20 32 0 0 0
2188 1719 1336 722 712 580 582 490 434 444 673 499 720 535 866 1009 995 759 724 724 718 613 806 747 449 256 590 616 628 552 689 738 909 1164 1014 894 636 805 981 764 697 663 664 630 565 490 362 354 500 633 546 345 331 529 226 224 688 1069 997 1121 1102 752 717 650 504 678 616 462 434 601 599 570 502 560 562 500 416 575 316 229 274 177 71 3 0
2180 1882 961 950 878 878 858 704 497 599 374 778 129 644 906 728 854 849 634 723 789 904 809 840 513 616 586 694 694 886 1416 981 1026 1015 1261 940 647 446 166 108 441 897 692 544 510 500 527 452 314 340 324 306 276 274 277 350 748 1102 1134 1030 838 421 415 351 428 523 646 786 687 554 630 718 728 662 668 596 560 492 307 184 150 158 30 0 0
2164 1466 1271 1248 1212 1072 959 860 690 582 389 250 85 445 525 386 547 778 513 478 470 574 792 688 755 886 926 809 680 740 919 1265 1336 848 1022 955 847 638 497 328 170 0 34 277 187 248 481 497 402 406 376 331 330 439 653 325 376 453 528 506 508 498 561 518 430 426 644 645 680 644 617 724 697 606 564 556 477 433 278 266 87 3 0 0 0
1991 1657 1652 1598 1576 1409 1274 1196 1046 693 598 770 292 46 11 0 155 254 202 240 254 392 509 827 877 1239 1381 1324 1196 1513 1681 970 1132 1225 1327 1452 1023 906 706 645 479 23 15 9 0 402 570 264 257 351 667 600 466 536 801 984 974 876 616 430 455 465 483 362 390 394 558 634 476 437 383 418 355 280 178 317 241 238 138 44 0 0 0 0 0
2241 2124 1933 1958 1944 1735 1552 1483 1217 989 883 826 337 310 78 0 34 125 144 234 330 425 568 789 908 1296 1880 2141 2132 1670 1741 1184 1544 1464 1450 1240 1083 1207 1279 1132 1098 919 826 823 480 0 51 348 386 264 537 662 459 972 701 911 790 446 338 326 474 478 509 483 444 356 336 303 267 234 314 384 320 235 228 293 45 158 216 185 0 0 0 0 0
2372 2147 2009 2012 1969 1773 1597 1495 1189 908 820 476 368 282 308 111 8 13 266 395 510 614 661 762 1077 1228 1760 1925 2087 2043 2278 2020 1820 1446 1289 976 826 990 862 542 413 408 216 52 343 520 487 310 440 565 505 564 462 542 616 496 374 346 312 297 314 300 278 256 191 258 250 266 287 294 392 425 387 109 48 2 2 0 0 2 0 0 0 0 0
2188 1849 1737 1886 1904 1790 1654 1579 1438 1117 723 640 495 452 329 18 0 129 358 588 563 717 814 861 947 1554 1725 2221 2375 2106 1879 1557 1619 1055 836 1157 1074 1008 853 742 572 432 181 10 67 36 86 84 41 56 80 104 30 17 72 30 43 75 128 133 84 120 143 139 86 88 126 120 184 191 28 0 0 0 0 0 0 0 0 0 0 0 0 0 0
2034 1796 1602 1786 1865 1752 1692 1570 1352 962 589 600 509 444 248 0 0 341 296 301 476 739 962 1016 1140 1378 1948 2405 1941 1711 1518 1360 1728 730 816 725 963 733 624 526 449 203 45 85 312 0 0 0 0 0 0 0 0 0 0 0 0 81 150 242 177 58 58 54 27 25 47 10 36 0 0 0 0 0 0 0 0 0 0 0 0 0 0 0 0
1788 1658 1697 1804 1829 1817 1667 1574 1354 858 734 614 526 422 0 0 7 213 438 486 580 857 1168 1235 1252 1784 2400 1569 1640 1584 1232 1483 1025 678 514 370 636 693 650 413 306 175 100 70 254 972 15 0 0 0 0 0 0 0 0 0 0 0 90 219 254 46 30 64 25 20 0 0 2 0 0 0 1 0 0 0 0 0 0 0 0 0 0 0 0
1706 1751 1802 1779 1887 1747 1714 1620 1276 948 709 1317 406 147 0 0 10 430 452 499 686 1026 1149 1352 1630 2253 2125 1621 1304 1152 1256 1005 636 416 19 151 541 538 479 301 259 124 56 63 27 73 128 240 393 489 398 327 525 545 658 206 0 0 64 283 255 209 152 127 25 0 0 0 0 0 1 0 5 0 0 0 0 0 0 0 2 45 53 38 7
Wind_Speed
12 11 9 9 8 8 7 7 13 5 10 8 10 7 13 9 9 12 9 8 9 14 13 14 18 15 15 15 13 12 12 13 12 12 13 12 12 17 18 15 14 13 16 14 13 14 14 13 12 13 13 11 10 12 13 12 14 14 12 11 9 9 9 9 9 8 7 6 6 6 7 7 7 8 8 9 9 9 10 10 10 10 10 10 9
9 7 10 9 8 3 8 9 10 7 6 8 9 10 7 8 7 6 11 10 13 13 15 15 13 11 10 12 12 14 15 11 12 12 12 13 12 17 21 17 15 15 15 15 14 13 13 13 12 9 7 9 12 13 14 10 11 14 14 13 12 10 9 9 9 8 8 6 5 4 5 6 6 6 7 7 8 8 8 9 9 9 10 9 8
8 6 8 9 4 4 8 8 9 7 5 7 7 6 7 7 8 10 11 8 9 10 11 10 9 10 10 10 12 12 11 12 12 13 14 13 12 14 15 19 17 16 15 16 15 13 12 12 11 10 9 10 13 13 13 8 7 10 13 14 14 12 11 10 10 9 8 7 5 3 3 4 5 5 5 6 6 6 7 8 8 8 8 8 7
7 6 9 4 7 7 6 7 8 6 9 5 9 9 7 8 8 7 9 11 8 9 10 11 11 10 12 13 12 12 12 11 11 11 9 9 10 11 16 16 19 16 16 17 16 16 14 12 11 11 10 10 13 13 11 8 5 7 10 12 14 15 14 13 12 10 9 7 6 4 2 2 3 4 4 4 5 5 6 7 8 8 8 8 7
7 8 8 8 7 8 7 8 7 8 9 11 6 3 4 2 8 12 9 8 10 10 9 8 8 8 9 11 10 11 11 11 11 11 12 12 11 11 10 17 15 16 19 17 17 16 15 12 10 10 11 10 11 12 10 9 6 5 7 9 14 21 25 29 23 20 14 8 6 5 3 2 1 3 4 4 5 5 6 6 7 8 8 8 7
8 8 8 9 8 7 7 9 9 9 8 7 9 7 7 11 11 7 8 9 10 11 9 8 9 9 8 6 8 8 10 12 12 11 10 10 10 8 9 9 15 18 16 19 18 17 17 16 13 11 9 10 11 12 9 8 7 5 6 9 17 24 26 16 11 9 9 10 10 6 5 3 1 2 4 5 6 7 7 7 7 8 8 8 8
8 7 9 9 10 11 12 9 8 9 7 9 9 8 10 10 8 8 8 9 8 7 9 9 9 10 10 9 9 9 11 12 12 12 12 10 9 9 9 8 8 7 15 15 18 17 17 17 15 13 10 7 8 9 9 7 6 6 7 14 15 15 18 5 5 8 10 9 8 9 7 4 2 0 2 4 4 5 5 6 6 7 7 8 8
9 8 8 9 8 8 8 9 11 10 8 8 11 12 11 10 9 8 7 6 6 7 8 9 9 9 10 10 11 11 12 13 13 13 12 11 10 10 10 10 9 10 8 13 15 15 16 16 16 15 13 11 8 8 8 7 7 9 11 12 12 14 16 9 6 7 11 11 10 9 8 9 7 5 2 1 1 1 3 3 4 4 5 6 7
10 10 9 10 9 10 9 1 7 11 14 15 12 10 10 9 9 8 8 9 8 8 9 9 9 9 10 11 12 13 12 11 12 12 13 12 11 10 10 11 10 9 11 10 15 13 14 15 16 13 13 12 10 9 9 8 10 12 13 14 13 11 9 9 9 7 9 11 10 8 8 9 9 8 5 4 3 2 1 1 2 3 3 4 5
12 12 11 10 9 8 10 12 11 8 10 10 10 11 10 10 9 10 10 9 10 9 10 nan 9 9 9 10 10 10 11 12 12 12 13 13 13 12 12 10 9 9 7 7 16 14 13 13 14 16 16 14 11 10 10 10 11 11 14 12 11 12 11 11 11 10 10 10 11 11 9 10 11 9 8 6 5 4 3 2 1 2 2 3 3
12 13 11 10 10 11 11 15 12 11 11 10 11 11 11 11 10 11 12 12 10 10 10 9 9 10 10 10 11 11 12 12 12 12 10 12 12 12 12 12 11 12 9 9 10 18 15 11 10 11 11 15 13 11 10 10 13 15 9 9 10 11 12 11 11 10 9 9 11 11 13 11 12 10 7 7 6 6 5 4 3 0 2 3 3
13 13 12 11 10 10 12 13 12 13 13 11 12 13 13 12 nan 12 12 13 14 13 12 11 10 9 9 10 12 12 12 13 13 14 14 12 12 11 10 13 13 12 12 10 11 9 10 14 17 15 11 15 15 13 13 12 20 21 18 14 11 10 9 9 11 11 10 8 9 10 12 13 13 12 10 8 9 9 8 6 4 4 2 1 2
14 13 12 12 11 12 15 14 14 14 14 13 15 15 15 13 13 15 14 13 12 13 14 13 12 11 12 13 15 14 15 16 14 15 15 14 13 11 11 13 12 12 14 13 11 11 11 12 12 16 19 16 13 15 15 19 22 21 18 16 12 9 8 8 9 10 9 9 8 8 10 12 13 13 13 12 12 12 12 10 8 6 4 2 1
14 14 14 14 14 15 15 16 15 14 16 15 15 17 15 14 14 13 15 15 14 14 14 13 15 14 12 13 14 18 14 18 18 16 17 16 15 12 11 10 11 11 12 13 13 13 13 14 13 15 15 17 20 16 20 20 21 21 18 16 15 14 12 9 8 8 9 9 8 8 9 11 13 14 15 16 16 16 15 14 12 9 6 5 4
14 16 15 16 17 17 17 17 16 16 18 17 16 15 15 nan 14 15 14 16 16 17 16 14 12 15 14 13 14 15 18 16 17 19 17 18 18 15 14 15 14 12 11 12 13 13 14 15 16 16 17 17 17 21 22 19 24 24 23 22 20 16 14 12 11 10 11 10 10 9 10 11 11 13 16 18 20 18 13 10 9 9 8 7 7
16 17 17 17 18 18 18 18 18 18 18 17 15 15 15 16 16 16 17 13 17 21 19 17 14 14 14 nan nan nan 18 16 19 18 nan nan nan 20 nan nan nan 14 11 13 nan nan 15 17 18 17 18 18 19 20 22 23 26 27 26 25 24 23 22 20 19 17 16 15 15 15 15 16 16 16 17 17 15 16 14 11 13 13 12 10 8
18 18 19 19 18 18 18 18 18 18 18 17 16 15 17 15 17 17 16 15 14 nan 21 20 20 15 15 14 15 17 13 nan nan 19 11 nan nan nan nan nan nan nan nan nan nan nan nan 18 17 19 19 20 20 21 22 23 24 24 27 27 nan nan nan 23 21 21 21 23 24 25 24 23 20 20 20 19 16 15 14 15 17 16 14 13 10
18 18 19 18 18 17 16 16 17 17 16 13 15 17 17 nan 19 16 18 19 16 nan nan 23 20 19 18 17 18 16 15 15 nan 20 17 nan nan nan nan nan nan nan nan nan nan nan nan nan nan 20 nan nan nan nan nan nan 25 nan nan nan nan nan nan nan 24 24 25 25 25 25 26 27 27 25 23 19 17 17 16 17 18 17 16 14 13
19 19 18 17 17 16 16 16 16 16 17 15 16 16 nan 19 18 19 17 19 18 17 nan 22 22 20 21 18 18 18 19 17 19 nan 21 16 16 nan nan nan nan nan nan nan nan nan nan nan nan nan nan nan nan nan nan nan nan nan nan nan nan nan nan nan nan nan nan nan nan 27 27 26 26 26 26 24 21 19 18 16 17 18 17 17 16
16 18 17 16 15 15 16 16 16 14 17 17 15 nan 18 19 17 19 18 17 18 15 nan nan 16 22 23 19 20 22 20 21 21 19 nan nan 22 nan nan nan nan nan nan nan nan nan nan nan nan nan nan nan nan nan nan nan nan nan nan nan nan nan nan nan nan nan nan nan nan nan nan nan nan 25 25 25 26 25 21 18 17 18 19 18 19
15 15 17 15 15 15 17 17 18 18 19 17 nan 20 19 19 19 19 19 20 18 19 nan 19 nan nan 20 21 19 21 22 21 23 23 nan 21 nan nan nan nan nan nan nan nan nan nan nan nan nan nan nan nan nan nan nan nan nan nan nan nan nan nan nan nan nan nan nan nan nan nan nan nan nan nan nan nan 25 25 25 25 24 22 21 21 20
15 15 15 15 16 18 19 19 19 19 20 18 19 20 20 19 19 19 20 20 20 19 18 20 nan 20 nan 20 19 21 21 22 24 23 nan nan nan nan nan nan nan nan nan nan nan nan nan nan nan nan nan nan nan nan nan nan nan nan nan nan nan nan nan nan nan nan nan nan nan nan nan nan nan nan nan nan nan nan 24 25 27 28 28 26 25
15 17 16 17 19 20 20 22 22 23 22 20 21 21 23 21 21 20 21 19 22 20 20 19 21 20 22 21 20 nan 22 nan nan nan nan nan nan nan nan nan nan nan nan nan nan nan nan nan nan nan nan nan nan nan nan nan nan nan nan nan nan nan nan nan nan nan nan nan nan nan nan nan nan nan nan nan nan nan nan nan nan 28 29 28 29
14 17 18 20 21 22 21 23 25 25 26 24 23 21 20 24 23 22 20 20 21 19 21 21 22 23 20 23 24 nan 23 nan nan 25 nan nan 21 nan nan nan nan nan nan 23 nan nan nan nan nan nan nan nan nan nan nan nan nan nan 33 nan nan nan nan nan nan nan nan nan nan nan nan nan nan nan nan nan nan nan nan nan nan nan nan nan 30
18 17 21 22 24 23 23 24 26 25 26 27 24 25 20 24 24 23 22 22 21 22 22 21 22 22 nan nan nan nan nan nan nan nan nan nan nan 20 nan nan nan nan nan nan nan nan nan nan nan nan nan nan nan nan nan nan nan nan nan nan nan 34 nan nan nan nan nan nan nan nan nan nan nan nan nan nan nan nan nan nan nan nan nan nan nan
21 21 22 24 25 26 26 26 27 27 27 26 27 27 26 24 26 24 24 23 21 23 21 20 21 22 nan nan nan nan nan nan nan nan nan nan nan nan nan nan nan nan nan nan nan nan nan nan nan nan nan nan nan nan nan nan nan 45 nan nan nan nan nan nan nan nan nan nan nan nan nan nan nan nan nan nan nan nan nan nan nan nan nan nan nan
21 23 23 26 27 28 28 28 29 29 29 28 28 29 29 27 26 27 23 25 24 23 22 21 20 22 22 22 22 nan nan nan nan nan nan nan nan nan nan 20 nan nan nan nan nan nan nan nan nan nan 32 nan nan nan nan nan nan 41 nan nan nan nan nan nan nan nan nan nan nan nan nan nan nan nan nan nan nan nan nan nan nan nan nan nan nan
22 24 26 28 29 29 29 30 32 33 33 33 32 33 33 30 29 28 26 25 24 24 22 21 20 20 21 22 22 19 20 nan nan nan nan 23 nan 23 23 nan nan nan nan nan nan nan nan nan nan nan nan nan nan nan nan nan nan nan nan nan nan nan 38 nan nan nan nan nan nan nan nan nan nan nan nan nan nan nan nan nan nan nan nan nan nan
26 28 30 30 31 31 31 32 33 34 35 36 35 34 35 34 33 31 28 25 25 24 24 22 20 21 22 23 22 21 22 23 22 22 24 24 24 24 24 23 nan nan nan nan nan nan nan nan nan 42 nan nan nan nan nan nan nan nan nan nan nan nan nan nan nan nan nan nan nan nan nan nan nan nan nan nan nan nan nan nan nan nan nan nan nan
28 29 30 32 31 33 33 34 35 36 37 38 38 37 37 35 32 32 30 28 25 26 26 23 21 21 21 nan nan 22 24 25 25 25 25 26 25 25 24 24 24 22 20 20 22 nan nan nan nan nan 37 nan nan nan nan nan nan nan nan nan nan nan nan nan nan nan nan nan nan nan nan nan nan nan nan nan nan nan nan nan nan nan nan nan nan
29 30 32 33 33 34 34 36 37 39 41 40 39 39 41 39 37 36 34 31 27 25 25 25 23 23 22 21 21 22 24 24 25 25 25 25 24 23 23 23 22 21 21 22 22 27 nan nan nan nan nan nan nan nan nan nan nan nan nan nan nan nan 36 35 nan nan nan nan nan nan nan nan nan nan nan nan nan nan nan nan nan nan nan nan nan
32 33 35 36 36 37 37 38 39 40 42 42 42 40 40 40 41 39 36 34 30 25 23 25 25 25 23 23 23 24 25 26 26 26 26 25 23 22 22 22 21 21 23 25 25 22 28 29 nan nan nan 37 nan nan 39 40 nan 44 40 38 36 35 36 37 38 40 nan nan nan nan nan nan nan nan nan nan nan nan nan nan nan nan nan nan nan
34 35 36 37 39 39 39 38 40 37 39 43 44 44 41 40 37 36 34 34 31 27 24 23 24 25 25 25 26 26 26 24 25 26 27 26 25 24 24 23 23 25 26 27 27 26 26 31 32 34 36 38 39 40 39 40 39 40 42 41 39 39 40 40 40 41 44 nan nan nan nan nan nan nan nan nan nan nan nan nan nan nan nan nan nan
34 36 37 39 40 40 39 39 38 37 36 41 46 46 45 42 38 34 33 32 30 28 26 24 24 26 27 27 27 28 27 24 24 25 27 28 27 26 26 25 26 28 31 30 31 31 29 30 33 37 37 38 38 40 39 40 39 nan 38 40 41 41 42 42 43 44 44 46 nan nan nan nan nan nan nan nan nan nan nan nan nan nan nan nan nan
34 36 38 39 40 39 37 37 36 36 37 40 44 45 43 39 35 33 33 32 29 27 27 25 25 27 27 27 27 28 28 25 25 26 27 28 29 27 26 28 29 29 31 33 33 33 33 34 35 37 39 39 39 39 39 40 40 41 40 41 42 43 43 42 42 43 44 nan nan nan nan nan nan nan nan nan nan nan nan nan nan nan nan nan nan
35 36 38 40 40 40 38 37 37 36 38 38 40 43 42 37 35 34 33 31 28 26 25 25 27 28 28 27 27 27 27 26 27 28 29 29 30 29 28 29 29 29 32 35 39 38 38 38 39 40 39 38 38 39 40 41 41 43 43 43 44 44 43 43 43 42 43 nan nan nan nan nan nan nan nan nan nan nan nan nan nan nan nan nan nan
36 37 39 40 41 41 38 38 38 38 38 37 37 39 39 38 38 38 36 30 26 25 24 25 27 27 26 25 25 26 26 27 29 30 30 29 30 30 29 29 30 31 34 36 38 41 42 43 41 42 40 38 37 38 40 40 42 45 48 48 46 45 44 41 41 nan nan nan nan nan nan nan nan nan nan nan nan nan nan nan nan nan nan nan nan
37 38 41 41 42 43 40 39 39 39 39 38 37 37 38 38 39 40 37 29 26 25 25 26 27 27 26 23 22 23 25 27 30 30 30 29 30 30 29 30 30 32 35 37 40 42 44 44 43 39 40 38 38 39 41 42 44 45 46 47 46 45 43 40 nan nan 40 nan nan 42 42 42 nan nan nan nan nan nan nan nan nan nan nan nan nan
39 39 41 42 42 43 43 40 38 38 39 39 38 37 38 39 40 39 35 30 27 27 26 26 25 25 24 21 21 23 26 28 29 29 29 28 30 30 31 30 31 34 36 39 41 43 44 43 42 39 36 38 40 39 42 44 45 47 43 43 43 45 44 41 39 38 37 37 37 nan nan nan nan 38 nan nan nan nan nan nan nan nan nan nan nan
39 40 41 42 43 43 44 42 40 40 41 41 40 38 37 39 39 37 34 31 29 28 27 27 25 23 22 20 21 26 29 29 29 28 29 29 31 31 33 34 34 35 37 40 42 43 43 42 40 37 39 40 42 40 40 41 45 46 47 44 40 41 41 41 39 36 35 37 36 35 37 38 38 35 nan nan nan nan nan nan nan nan nan nan nan
39 41 41 42 43 44 46 46 44 42 41 41 41 40 39 39 37 35 34 32 30 28 27 26 26 23 21 21 23 27 30 31 31 30 29 30 31 31 32 33 34 36 38 40 42 42 40 38 36 37 38 41 42 43 42 44 46 41 42 42 39 38 39 38 39 38 38 38 36 34 34 35 33 33 34 35 36 33 30 nan nan nan nan nan nan
39 42 43 43 44 46 46 47 45 41 39 39 42 44 42 39 36 32 32 33 31 30 28 27 27 25 23 24 27 27 30 31 33 34 33 32 34 33 33 34 35 36 39 40 39 39 37 34 35 37 38 40 42 45 43 43 44 42 40 41 39 38 39 39 38 40 41 40 37 35 34 34 32 31 31 31 31 31 32 32 34 32 nan nan nan
38 42 45 47 46 45 46 47 44 39 38 38 44 42 44 43 36 31 32 34 34 31 29 28 27 25 25 27 28 28 30 32 32 33 33 34 34 36 36 36 38 40 39 39 38 36 35 34 35 37 38 39 41 41 42 42 42 40 41 40 38 36 36 35 36 40 42 39 37 33 31 31 30 28 28 27 27 28 27 26 24 23 nan nan nan
39 41 47 48 47 45 42 43 43 41 39 41 nan 45 45 44 38 34 33 35 36 32 29 25 26 26 26 27 28 28 26 29 39 33 29 32 34 34 36 39 41 nan nan 41 37 35 35 35 37 39 41 42 41 40 39 39 39 37 36 35 35 34 34 35 36 35 38 35 31 27 24 26 28 26 24 25 24 25 24 24 nan nan nan nan nan
43 46 48 50 48 45 41 40 40 40 38 44 44 nan nan nan 40 35 33 34 37 33 28 26 25 26 27 27 27 27 35 41 38 38 38 37 35 34 36 41 44 nan nan nan nan 38 37 39 41 42 44 43 41 39 39 37 37 35 34 33 34 35 35 34 34 32 30 30 26 22 19 22 27 24 21 24 23 24 24 nan nan nan nan nan nan
48 49 51 53 50 47 42 38 38 38 37 45 45 44 nan nan nan 37 33 35 37 33 27 25 25 24 25 27 27 27 34 36 35 35 39 41 39 40 42 45 47 47 47 45 43 nan nan 44 45 45 44 44 41 39 36 37 35 34 33 32 33 34 34 33 30 26 25 26 24 22 18 20 24 22 20 21 nan 24 24 21 nan nan nan nan nan
50 51 54 55 52 48 42 40 38 38 37 46 45 44 42 41 nan nan 35 36 34 31 26 23 22 22 23 25 26 27 30 32 36 38 38 39 39 42 44 43 44 40 38 nan 42 45 49 50 49 45 42 41 38 37 35 34 33 33 32 31 32 33 32 29 24 24 22 26 24 24 19 20 23 21 nan nan nan nan nan nan nan nan nan nan nan
51 52 54 55 52 47 43 41 40 39 39 46 44 43 42 nan nan 38 36 35 31 28 25 23 22 24 25 26 29 30 29 29 34 37 39 41 43 43 43 44 43 40 38 nan nan nan nan nan nan nan nan 40 nan nan nan nan nan nan 33 31 nan 34 33 30 nan nan 20 23 24 24 nan nan nan nan nan nan nan nan nan nan nan nan nan nan nan
54 55 55 54 48 45 44 42 40 38 40 42 43 42 42 nan nan 36 35 33 30 28 26 25 26 29 30 31 30 28 29 28 41 47 49 47 44 44 44 43 41 38 nan nan 48 nan nan nan nan nan nan nan nan nan nan nan nan nan 35 34 35 nan nan nan nan nan nan nan nan nan nan nan nan nan nan nan nan nan nan nan nan nan nan nan nan
55 57 54 49 44 41 41 42 40 39 36 39 42 42 nan nan nan 37 35 34 32 31 29 29 32 34 33 31 29 29 28 34 47 49 50 48 45 44 44 41 37 35 nan nan 45 55 nan nan nan nan nan nan nan nan nan nan nan nan nan 38 35 nan nan nan nan nan nan nan nan nan nan nan nan nan nan nan nan nan nan nan nan nan nan nan nan
55 54 49 42 38 37 38 40 38 37 33 40 43 42 nan nan nan 36 35 34 34 33 33 34 35 33 30 29 31 30 35 46 49 50 nan 47 46 45 42 38 35 34 nan nan nan nan 45 44 42 40 40 39 38 36 36 37 nan nan nan 37 35 35 30 24 nan nan nan nan nan nan nan nan nan nan nan nan nan nan nan nan nan nan nan nan nan
Wind_Direction
61 65 62 71 67 71 107 88 72 82 82 67 77 49 61 38 40 56 53 29 42 48 56 57 49 35 17 38 30 34 49 36 34 34 32 28 28 352 354 347 335 325 325 324 320 323 328 331 338 345 347 336 310 302 298 279 279 284 285 287 290 293 298 300 302 304 307 312 322 332 339 344 347 351 351 352 356 360 1 359 359 3 8 12 14
62 62 66 58 61 44 45 60 76 71 93 98 58 58 54 34 41 66 65 27 31 41 46 46 52 50 36 42 34 33 27 25 30 30 25 22 23 354 360 356 349 342 333 330 333 332 338 345 347 349 356 329 312 322 339 320 281 285 289 290 287 284 286 286 288 294 299 300 305 326 340 343 350 353 355 357 357 360 5 4 5 7 12 17 21
58 44 53 60 60 39 54 73 78 35 46 57 73 74 59 64 15 22 42 43 35 40 39 42 44 44 41 36 35 26 29 30 27 29 21 23 16 353 356 356 2 354 346 341 340 342 347 349 350 356 2 345 342 352 1 355 298 283 283 285 285 279 275 271 271 276 280 282 281 305 330 347 349 350 353 360 3 2 3 9 11 13 17 24 30
62 47 56 348 38 46 47 50 54 33 28 27 55 36 31 46 48 25 23 25 21 27 24 29 33 32 24 23 26 25 18 29 26 33 18 26 23 11 350 357 359 359 357 354 352 349 349 352 351 351 1 352 348 356 6 9 346 315 300 284 278 273 266 258 257 253 257 259 268 275 286 334 347 347 348 359 7 11 9 9 12 15 23 33 38
38 42 40 43 22 20 26 31 41 47 2 26 42 27 352 5 39 18 13 10 19 22 22 22 23 22 26 31 18 14 13 15 18 22 27 17 20 9 356 342 347 0 359 0 359 358 357 360 360 354 354 348 342 347 0 6 359 350 317 290 261 243 230 227 220 213 205 226 274 273 277 290 326 349 353 354 5 13 14 16 12 13 19 28 41
28 23 38 36 15 29 22 20 27 39 352 348 5 11 1 13 26 13 7 10 12 7 358 3 7 6 9 10 16 2 7 11 11 12 15 15 14 5 11 3 341 354 352 356 1 1 3 2 9 7 5 351 337 332 351 1 356 339 297 275 251 237 238 230 241 263 250 230 218 241 272 272 299 5 10 2 2 11 17 15 12 13 13 19 33
15 21 30 30 13 7 30 7 7 26 4 352 359 4 10 18 11 4 2 1 349 344 356 351 354 355 355 0 2 3 5 4 2 1 6 4 6 7 5 360 353 348 333 344 353 1 359 3 7 10 17 12 346 334 339 345 335 309 282 266 272 284 272 271 275 277 271 255 251 242 245 271 271 69 51 29 3 2 12 13 14 12 8 13 23
18 22 25 36 32 8 20 348 14 358 342 358 3 4 4 6 357 354 339 332 338 352 342 349 350 345 342 350 351 357 357 357 356 351 357 355 1 354 355 351 348 338 324 337 339 342 353 357 1 6 14 16 11 341 332 325 310 288 286 304 329 322 326 331 295 270 267 269 264 271 279 283 284 278 251 206 64 13 6 12 13 10 10 13 16
10 9 22 29 30 25 333 315 57 354 346 354 3 350 345 346 333 337 334 332 341 350 341 343 347 340 342 348 343 347 353 349 349 350 345 348 348 348 348 344 334 333 350 339 320 321 341 347 353 360 7 16 17 2 344 334 321 314 329 338 338 338 331 334 320 291 262 259 258 260 277 281 283 282 270 242 226 240 280 7 11 11 4 12 15
359 360 10 23 26 18 347 345 31 339 341 347 344 342 339 337 334 338 336 329 339 337 334 nan 335 338 338 335 334 340 340 344 344 343 344 341 341 339 328 327 336 320 320 314 303 325 325 342 342 351 353 356 1 1 354 347 335 335 334 337 343 341 345 347 338 320 300 281 265 252 242 260 258 257 259 251 236 225 225 247 326 3 2 9 14
356 359 356 9 14 14 356 349 348 339 328 344 344 330 328 332 345 340 339 343 330 333 326 326 332 339 336 327 327 333 335 336 337 340 337 342 328 324 338 321 315 316 309 314 312 318 324 319 317 319 334 341 339 349 346 333 315 322 330 347 352 346 345 342 331 326 324 306 281 263 249 242 244 241 244 248 241 237 225 220 227 303 357 356 5
4 351 354 356 3 354 326 322 326 326 325 327 316 324 314 326 nan 343 339 339 341 334 332 327 327 324 325 327 330 331 329 326 332 337 341 339 328 328 320 309 314 311 311 308 307 299 301 309 316 316 300 320 336 326 326 314 299 316 339 347 348 344 335 325 327 329 332 325 297 275 258 247 241 241 238 239 238 235 228 221 221 215 204 313 355
346 346 349 351 344 319 317 322 321 321 314 315 309 308 317 322 336 338 339 335 335 334 329 328 324 320 322 327 325 324 326 316 327 332 336 335 326 328 315 317 312 311 307 302 300 297 302 298 289 294 305 299 297 315 301 286 296 307 320 328 329 331 323 311 302 310 317 318 314 302 280 258 247 242 242 243 239 232 224 215 218 212 204 200 184
338 339 341 340 333 321 322 316 314 304 307 303 300 309 316 323 323 325 333 328 326 324 312 320 329 314 310 303 317 316 312 320 326 326 324 328 324 320 317 302 296 294 296 306 301 304 296 286 279 280 280 287 307 299 294 297 293 297 295 293 298 302 304 309 303 305 311 310 309 306 297 279 262 251 245 242 240 236 228 219 216 212 199 197 209
330 330 328 330 323 323 319 314 310 304 303 304 308 309 305 nan 317 319 317 325 324 314 314 312 312 300 312 321 314 315 311 315 317 321 327 325 325 323 322 317 298 302 299 298 296 289 285 279 277 277 278 279 279 286 294 288 287 287 283 281 285 293 293 287 291 295 284 274 271 269 271 271 268 259 254 248 245 246 245 248 247 237 223 206 205
323 324 322 315 319 322 319 317 314 306 304 302 307 306 304 308 317 316 311 321 324 313 308 305 300 297 309 nan nan nan 315 305 320 310 nan nan nan 316 nan nan nan 292 302 289 nan nan 284 283 282 278 278 277 279 280 282 286 287 282 277 273 272 269 268 268 265 262 263 271 267 261 255 255 258 256 253 255 253 262 262 255 248 241 232 229 220
315 315 315 320 321 320 320 318 315 311 307 314 313 302 300 308 304 309 312 304 307 nan 305 304 296 292 296 301 313 312 286 nan nan 299 304 nan nan nan nan nan nan nan nan nan nan nan nan 288 287 284 283 280 279 279 280 280 285 285 281 273 nan nan nan 267 264 261 258 257 258 257 255 254 254 257 259 262 266 263 251 245 245 244 234 227 223
314 318 322 320 319 317 316 317 316 314 312 312 296 299 309 nan 306 306 305 305 297 nan nan 297 297 296 292 296 296 292 293 284 nan 296 307 nan nan nan nan nan nan nan nan nan nan nan nan nan nan 290 nan nan nan nan nan nan 277 nan nan nan nan nan nan nan 267 264 261 257 256 255 254 254 255 256 258 261 258 257 249 241 240 242 242 238 232
318 320 320 317 311 314 316 320 319 317 317 311 312 314 nan 306 301 305 301 295 302 302 nan 302 299 300 297 294 287 288 285 290 288 nan 305 308 300 nan nan nan nan nan nan nan nan nan nan nan nan nan nan nan nan nan nan nan nan nan nan nan nan nan nan nan nan nan nan nan nan 257 255 254 254 254 253 253 253 251 251 248 244 242 242 241 236
319 316 316 314 312 313 316 321 320 320 310 312 308 nan 290 289 293 294 301 303 295 295 nan nan 300 304 295 293 292 294 298 299 293 293 nan nan 306 nan nan nan nan nan nan nan nan nan nan nan nan nan nan nan nan nan nan nan nan nan nan nan nan nan nan nan nan nan nan nan nan nan nan nan nan 253 250 247 247 248 250 251 250 245 241 236 235
321 321 315 313 313 316 318 319 317 316 313 315 nan 307 301 303 304 309 313 306 304 289 nan 294 nan nan 288 291 296 294 292 293 298 305 nan 299 nan nan nan nan nan nan nan nan nan nan nan nan nan nan nan nan nan nan nan nan nan nan nan nan nan nan nan nan nan nan nan nan nan nan nan nan nan nan nan nan 246 244 244 244 246 247 245 240 236
320 319 315 314 313 314 316 316 315 316 315 319 316 306 307 311 310 313 311 306 298 304 297 294 nan 286 nan 289 290 291 296 301 306 308 nan nan nan nan nan nan nan nan nan nan nan nan nan nan nan nan nan nan nan nan nan nan nan nan nan nan nan nan nan nan nan nan nan nan nan nan nan nan nan nan nan nan nan nan 244 241 240 242 242 238 233
321 318 319 318 315 314 316 314 315 314 316 313 317 319 319 315 312 309 308 308 301 301 298 295 293 291 291 292 289 nan 287 nan nan nan nan nan nan nan nan nan nan nan nan nan nan nan nan nan nan nan nan nan nan nan nan nan nan nan nan nan nan nan nan nan nan nan nan nan nan nan nan nan nan nan nan nan nan nan nan nan nan 242 243 241 236
321 320 322 324 318 315 316 315 315 314 315 316 320 321 315 313 308 306 306 305 302 295 295 297 297 296 295 296 297 nan 294 nan nan 301 nan nan 293 nan nan nan nan nan nan 302 nan nan nan nan nan nan nan nan nan nan nan nan nan nan 317 nan nan nan nan nan nan nan nan nan nan nan nan nan nan nan nan nan nan nan nan nan nan nan nan nan 240
323 327 325 328 320 320 320 320 316 316 315 315 314 308 310 308 309 308 305 304 301 297 293 294 297 298 nan nan nan nan nan nan nan nan nan nan nan 301 nan nan nan nan nan nan nan nan nan nan nan nan nan nan nan nan nan nan nan nan nan nan nan 313 nan nan nan nan nan nan nan nan nan nan nan nan nan nan nan nan nan nan nan nan nan nan nan
327 330 327 327 323 324 323 322 320 317 316 316 313 311 308 308 308 309 307 300 297 295 292 290 294 297 nan nan nan nan nan nan nan nan nan nan nan nan nan nan nan nan nan nan nan nan nan nan nan nan nan nan nan nan nan nan nan 311 nan nan nan nan nan nan nan nan nan nan nan nan nan nan nan nan nan nan nan nan nan nan nan nan nan nan nan
327 326 326 322 324 322 322 322 321 318 316 314 314 314 311 310 305 304 299 296 296 295 292 290 290 297 296 294 290 nan nan nan nan nan nan nan nan nan nan 305 nan nan nan nan nan nan nan nan nan nan 318 nan nan nan nan nan nan 310 nan nan nan nan nan nan nan nan nan nan nan nan nan nan nan nan nan nan nan nan nan nan nan nan nan nan nan
325 323 324 322 323 322 321 322 320 319 317 317 316 314 313 313 310 304 298 291 291 292 288 287 289 291 296 294 292 288 288 nan nan nan nan 289 nan 292 300 nan nan nan nan nan nan nan nan nan nan nan nan nan nan nan nan nan nan nan nan nan nan nan 308 nan nan nan nan nan nan nan nan nan nan nan nan nan nan nan nan nan nan nan nan nan nan
322 322 324 326 326 325 323 321 319 317 316 314 313 311 310 312 312 309 299 289 287 286 283 284 282 288 296 299 293 289 287 286 288 290 290 288 290 294 298 304 nan nan nan nan nan nan nan nan nan 313 nan nan nan nan nan nan nan nan nan nan nan nan nan nan nan nan nan nan nan nan nan nan nan nan nan nan nan nan nan nan nan nan nan nan nan
329 326 331 331 329 326 323 321 319 317 316 315 311 307 306 307 305 305 302 292 286 283 281 280 281 281 285 nan nan 289 288 291 293 294 293 292 293 297 301 306 307 309 307 311 314 nan nan nan nan nan 304 nan nan nan nan nan nan nan nan nan nan nan nan nan nan nan nan nan nan nan nan nan nan nan nan nan nan nan nan nan nan nan nan nan nan
330 330 330 330 326 323 322 321 319 320 318 319 313 304 304 305 303 301 299 292 286 284 280 280 280 280 282 284 285 286 286 285 284 287 289 293 296 299 304 306 309 312 311 310 314 313 nan nan nan nan nan nan nan nan nan nan nan nan nan nan nan nan 300 298 nan nan nan nan nan nan nan nan nan nan nan nan nan nan nan nan nan nan nan nan nan
330 330 329 328 326 325 325 324 322 322 321 319 315 307 303 305 305 304 301 296 289 286 283 283 283 284 285 286 284 280 278 281 284 289 294 296 296 298 301 305 307 310 310 310 312 313 310 309 nan nan nan 314 nan nan 312 310 nan 309 308 306 304 303 301 301 306 308 nan nan nan nan nan nan nan nan nan nan nan nan nan nan nan nan nan nan nan
330 330 329 327 326 327 326 324 322 323 323 319 316 311 303 300 301 302 302 297 291 287 288 286 287 286 285 284 278 274 277 283 287 290 294 295 293 294 297 301 305 308 310 309 310 311 309 308 309 310 312 312 313 312 311 309 307 306 308 308 307 306 304 302 299 300 303 nan nan nan nan nan nan nan nan nan nan nan nan nan nan nan nan nan nan
332 332 331 329 328 328 327 324 322 323 322 321 322 318 310 305 303 301 303 301 293 289 292 292 288 285 283 284 284 282 284 288 290 293 295 295 293 293 295 296 299 304 307 311 313 313 314 311 312 311 312 312 312 310 308 306 305 nan 305 304 305 305 303 302 300 298 299 300 nan nan nan nan nan nan nan nan nan nan nan nan nan nan nan nan nan
335 333 333 332 330 330 330 327 325 323 325 325 326 324 316 310 307 304 303 305 302 299 299 294 291 289 288 286 286 286 286 291 296 297 296 295 293 292 292 295 302 307 309 312 313 315 317 316 314 314 313 311 310 306 306 305 303 305 307 307 306 304 302 300 298 296 296 nan nan nan nan nan nan nan nan nan nan nan nan nan nan nan nan nan nan
336 333 333 331 329 329 329 327 327 325 323 324 326 328 325 318 311 308 305 303 303 303 299 296 296 296 294 287 283 284 285 290 298 298 296 295 294 293 294 297 302 307 310 312 316 318 318 318 316 315 311 308 307 306 304 305 308 308 307 306 306 305 302 300 298 296 296 nan nan nan nan nan nan nan nan nan nan nan nan nan nan nan nan nan nan
337 332 329 329 328 326 325 325 325 322 322 325 325 325 323 317 314 313 309 306 304 302 299 298 298 299 295 289 282 282 285 292 299 299 296 295 294 294 296 298 301 306 310 314 315 318 319 319 316 313 311 311 310 308 307 306 306 307 307 308 306 304 302 299 297 nan nan nan nan nan nan nan nan nan nan nan nan nan nan nan nan nan nan nan nan
337 332 328 326 326 324 320 318 320 320 320 323 323 319 317 314 313 314 311 307 303 302 301 301 301 301 302 298 287 283 288 295 297 295 292 293 294 296 299 300 303 308 314 316 317 319 319 317 315 314 311 313 311 311 309 307 306 305 304 305 304 302 300 298 nan nan 292 nan nan 294 299 299 nan nan nan nan nan nan nan nan nan nan nan nan nan
336 332 327 325 321 319 315 315 318 318 319 321 320 319 314 311 312 313 310 305 300 297 299 302 303 304 306 302 293 292 293 294 294 294 294 297 297 299 299 301 307 312 314 315 317 318 316 314 312 310 312 314 312 311 310 310 308 306 304 303 303 301 299 299 299 298 296 295 298 nan nan nan nan 280 nan nan nan nan nan nan nan nan nan nan nan
338 331 326 323 319 316 313 313 315 317 318 319 321 320 313 307 312 314 307 301 299 299 300 302 305 303 300 299 299 301 301 298 298 297 298 298 300 301 300 302 306 311 313 314 315 314 312 310 309 310 310 308 308 312 308 307 305 308 305 302 302 299 299 299 300 299 299 299 298 294 293 294 294 292 nan nan nan nan nan nan nan nan nan nan nan
335 330 324 320 317 314 312 312 314 315 316 317 318 320 315 310 311 312 307 299 296 295 296 299 303 301 294 294 302 303 303 303 299 295 298 297 299 301 302 304 307 309 311 313 314 313 310 307 308 309 311 312 311 309 310 307 306 306 302 301 302 301 301 302 305 306 302 299 294 290 288 285 281 278 272 272 275 283 284 nan nan nan nan nan nan
333 328 323 318 316 315 314 314 313 313 315 315 316 322 317 308 307 308 306 300 297 294 295 300 302 297 296 301 306 308 298 296 297 299 302 305 305 304 303 305 308 310 312 313 312 309 306 306 309 310 312 313 313 313 310 306 305 303 299 299 300 300 303 307 307 306 302 297 291 288 287 284 280 275 274 273 270 268 262 266 265 261 nan nan nan
330 326 324 322 317 315 316 313 314 317 315 312 316 319 317 312 305 304 305 306 303 298 296 294 295 295 297 303 303 303 302 300 304 302 299 296 301 307 310 313 314 313 313 314 312 307 306 308 311 314 314 313 310 306 305 303 302 301 300 301 303 303 304 302 300 299 298 293 289 287 286 283 278 276 275 273 270 267 265 262 257 257 nan nan nan
326 326 323 322 316 312 312 317 319 315 313 310 nan 317 313 310 306 303 308 309 306 304 298 295 293 296 301 302 300 297 299 291 285 291 304 310 311 313 315 318 321 nan nan 314 310 307 308 310 313 315 314 310 307 304 303 301 299 300 302 302 303 303 303 302 300 299 293 288 286 285 285 282 280 278 273 270 265 262 264 264 nan nan nan nan nan
323 320 320 319 316 312 311 314 314 312 310 306 312 nan nan nan 309 307 304 305 305 304 301 297 297 300 302 300 299 298 290 291 302 303 304 303 302 308 316 321 322 nan nan nan nan 315 312 316 317 316 313 309 306 305 302 298 297 300 300 303 302 302 302 302 302 297 292 286 285 287 285 279 275 271 266 267 263 264 262 nan nan nan nan nan nan
319 319 319 319 318 314 310 309 308 307 305 300 305 306 nan nan nan 305 306 304 302 302 300 298 300 305 304 300 298 298 292 294 297 299 298 299 303 305 310 315 318 321 323 325 325 nan nan 317 316 314 311 307 307 303 302 300 300 299 299 301 300 300 300 303 300 297 293 293 295 290 290 283 278 273 273 267 nan 260 262 262 nan nan nan nan nan
318 319 318 317 315 313 307 304 305 303 297 301 304 304 305 307 nan nan 303 301 300 298 298 301 305 306 303 301 299 296 292 293 296 299 298 296 302 311 316 314 314 314 313 nan 315 315 315 317 315 313 309 309 306 304 301 299 300 301 300 301 302 302 303 304 302 298 297 300 301 299 296 289 285 281 nan nan nan nan nan nan nan nan nan nan nan
313 316 316 314 312 311 306 305 304 303 295 302 305 308 307 nan nan 297 300 301 298 293 295 300 303 300 299 297 294 292 292 295 298 300 297 300 303 306 307 310 310 310 309 nan nan nan nan nan nan nan nan 297 nan nan nan nan nan nan 304 306 nan 303 305 304 nan nan 293 295 296 292 nan nan nan nan nan nan nan nan nan nan nan nan nan nan nan
313 316 318 313 309 307 305 303 301 298 295 305 307 309 308 nan nan 297 299 298 292 290 292 298 300 301 298 295 294 293 294 296 297 298 295 297 300 303 307 308 307 305 nan nan 308 nan nan nan nan nan nan nan nan nan nan nan nan nan 304 305 307 nan nan nan nan nan nan nan nan nan nan nan nan nan nan nan nan nan nan nan nan nan nan nan nan
314 315 316 313 306 304 305 300 299 296 298 305 310 308 nan nan nan 301 296 291 288 287 292 297 299 298 296 295 295 291 290 289 293 293 295 297 302 305 306 306 304 303 nan nan 305 307 nan nan nan nan nan nan nan nan nan nan nan nan nan 314 312 nan nan nan nan nan nan nan nan nan nan nan nan nan nan nan nan nan nan nan nan nan nan nan nan
315 315 314 308 301 301 303 299 296 303 304 302 310 310 nan nan nan 296 292 288 287 289 293 296 296 293 291 296 298 294 284 287 292 294 nan 298 302 305 305 303 304 304 nan nan nan nan 307 309 310 312 315 321 322 319 319 328 nan nan nan 320 315 313 309 303 nan nan nan nan nan nan nan nan nan nan nan nan nan nan nan nan nan nan nan nan nan